AFL1730 UUEE-UHPP

Flight info

Callsign AFL1730
Flight time 7h 56m
Altitude 33000
Route RILPO3J RILPO T753 TUNOB T791 BI M130 OSVOD B927 UNDEM/K0907F370 B927 LUMAG A812 BAKEN BAKEN5N
Aircraft B77W/H-SDE1E2E3FGHIJ2J3J4J5M1RWXY/LB1D1

Departure

Time 2026-04-25 08:35
Airport Sheremetyevo International Airport (UUEE)

Arrival

Time 2026-04-25 16:32
Airport Yelizovo Airport (UHPP)
Time Latitude Longitude Altitude Speed Heading
2026-04-25 07:41 55.98017 37.41834 644 ft 0 kts 255°
2026-04-25 08:24 55.98019 37.41850 644 ft 1 kts 258°
2026-04-25 08:24 55.98021 37.41867 644 ft 2 kts 255°
2026-04-25 08:25 55.98027 37.41892 644 ft 2 kts 235°
2026-04-25 08:25 55.98036 37.41912 644 ft 2 kts 222°
2026-04-25 08:25 55.98048 37.41928 644 ft 2 kts 210°
2026-04-25 08:25 55.98061 37.41940 644 ft 2 kts 197°
2026-04-25 08:26 55.98076 37.41945 644 ft 2 kts 184°
2026-04-25 08:26 55.98090 37.41945 644 ft 2 kts 171°
2026-04-25 08:26 55.98097 37.41943 644 ft 0 kts 167°
2026-04-25 08:28 55.98071 37.41954 643 ft 7 kts 166°
2026-04-25 08:29 55.97997 37.41988 643 ft 13 kts 163°
2026-04-25 08:29 55.97892 37.42040 643 ft 17 kts 164°
2026-04-25 08:29 55.97800 37.42084 644 ft 9 kts 164°
2026-04-25 08:29 55.97736 37.42116 644 ft 9 kts 164°
2026-04-25 08:30 55.97692 37.42214 644 ft 13 kts 86°
2026-04-25 08:30 55.97715 37.42394 644 ft 16 kts 75°
2026-04-25 08:30 55.97749 37.42619 644 ft 20 kts 75°
2026-04-25 08:30 55.97789 37.42884 644 ft 23 kts 74°
2026-04-25 08:31 55.97837 37.43190 644 ft 26 kts 74°
2026-04-25 08:31 55.97861 37.43389 644 ft 16 kts 77°
2026-04-25 08:31 55.97878 37.43524 643 ft 12 kts 75°
2026-04-25 08:31 55.97907 37.43692 644 ft 16 kts 71°
2026-04-25 08:32 55.97938 37.43889 644 ft 8 kts 74°
2026-04-25 08:32 55.97930 37.44005 644 ft 11 kts 130°
2026-04-25 08:32 55.97923 37.44017 644 ft 0 kts 148°
2026-04-25 08:32 55.97916 37.44025 644 ft 4 kts 149°
2026-04-25 08:33 55.97857 37.44058 644 ft 12 kts 171°
2026-04-25 08:33 55.97786 37.44019 644 ft 11 kts 233°
2026-04-25 08:33 55.97773 37.43962 644 ft 0 kts 254°
2026-04-25 08:34 55.97773 37.43960 644 ft 2 kts 254°
2026-04-25 08:34 55.97768 37.43925 644 ft 18 kts 254°
2026-04-25 08:35 55.97666 37.43248 644 ft 93 kts 255°
2026-04-25 08:35 55.97446 37.41748 646 ft 156 kts 258°
2026-04-25 08:35 55.97153 37.39725 1147 ft 171 kts 256°
2026-04-25 08:35 55.96801 37.37760 2022 ft 173 kts 248°
2026-04-25 08:36 55.96146 37.35816 2549 ft 197 kts 238°
2026-04-25 08:36 55.95347 37.33764 3246 ft 212 kts 237°
2026-04-25 08:36 55.94474 37.31539 3844 ft 223 kts 237°
2026-04-25 08:36 55.93563 37.29228 4277 ft 239 kts 237°
2026-04-25 08:37 55.92590 37.26763 4855 ft 250 kts 237°
2026-04-25 08:37 55.91584 37.24220 5631 ft 253 kts 237°
2026-04-25 08:37 55.90349 37.21969 6364 ft 261 kts 214°
2026-04-25 08:37 55.88630 37.20832 6907 ft 272 kts 188°
2026-04-25 08:38 55.86750 37.21145 6982 ft 276 kts 160°
2026-04-25 08:38 55.85164 37.22937 6994 ft 277 kts 134°
2026-04-25 08:38 55.84136 37.25836 6990 ft 279 kts 105°
2026-04-25 08:38 55.83931 37.28979 6992 ft 283 kts 79°
2026-04-25 08:39 55.84655 37.32311 7498 ft 285 kts 48°
2026-04-25 08:39 55.85949 37.34889 8356 ft 281 kts 42°
2026-04-25 08:39 55.87275 37.37461 8904 ft 286 kts 44°
2026-04-25 08:39 55.88577 37.40178 8983 ft 286 kts 46°
2026-04-25 08:40 55.89825 37.42874 8987 ft 286 kts 46°
2026-04-25 08:40 55.91060 37.45559 8989 ft 285 kts 46°
2026-04-25 08:40 55.92280 37.48219 8982 ft 284 kts 46°
2026-04-25 08:40 55.93520 37.50924 8983 ft 284 kts 46°
2026-04-25 08:41 55.94866 37.53492 9003 ft 289 kts 39°
2026-04-25 08:41 55.96321 37.55933 9702 ft 292 kts 38°
2026-04-25 08:41 55.97808 37.58416 9955 ft 291 kts 38°
2026-04-25 08:41 55.99260 37.60854 9973 ft 288 kts 38°
2026-04-25 08:42 56.00713 37.63299 9976 ft 286 kts 38°
2026-04-25 08:42 56.02165 37.65744 9968 ft 286 kts 38°
2026-04-25 08:42 56.03619 37.68196 9971 ft 286 kts 39°
2026-04-25 08:42 56.05054 37.70619 9977 ft 286 kts 39°
2026-04-25 08:43 56.06493 37.73053 9971 ft 286 kts 39°
2026-04-25 08:43 56.07954 37.75525 9970 ft 287 kts 39°
2026-04-25 08:43 56.09391 37.77960 9977 ft 287 kts 39°
2026-04-25 08:43 56.10778 37.80492 9976 ft 287 kts 43°
2026-04-25 08:44 56.12146 37.83128 9977 ft 287 kts 42°
2026-04-25 08:44 56.13564 37.85619 9953 ft 282 kts 29°
2026-04-25 08:44 56.15324 37.86994 9970 ft 282 kts
2026-04-25 08:44 56.17329 37.87511 10238 ft 300 kts
2026-04-25 08:45 56.19477 37.87863 10685 ft 315 kts
2026-04-25 08:45 56.21700 37.88194 11139 ft 329 kts
2026-04-25 08:45 56.24007 37.88538 11591 ft 344 kts
2026-04-25 08:45 56.26449 37.88906 12081 ft 357 kts
2026-04-25 08:46 56.28953 37.89280 12685 ft 367 kts
2026-04-25 08:46 56.31465 37.89611 13466 ft 370 kts
2026-04-25 08:46 56.34045 37.89944 14277 ft 373 kts
2026-04-25 08:46 56.36601 37.90275 15001 ft 378 kts
2026-04-25 08:47 56.39249 37.90620 15695 ft 384 kts
2026-04-25 08:47 56.41922 37.90977 16413 ft 389 kts
2026-04-25 08:47 56.44602 37.91340 17111 ft 393 kts
2026-04-25 08:47 56.47350 37.91713 17807 ft 398 kts
2026-04-25 08:48 56.50138 37.92092 18478 ft 403 kts
2026-04-25 08:48 56.52918 37.92471 19122 ft 407 kts
2026-04-25 08:48 56.55725 37.92853 19820 ft 410 kts
2026-04-25 08:48 56.58592 37.93245 20524 ft 413 kts
2026-04-25 08:49 56.61450 37.93636 21182 ft 415 kts
2026-04-25 08:49 56.64304 37.94226 21773 ft 422 kts
2026-04-25 08:49 56.67183 37.95600 22339 ft 432 kts 14°
2026-04-25 08:49 56.69953 37.97796 22868 ft 443 kts 22°
2026-04-25 08:50 56.72559 38.00822 23375 ft 454 kts 32°
2026-04-25 08:50 56.74964 38.04686 23893 ft 463 kts 39°
2026-04-25 08:50 56.77246 38.08831 24451 ft 467 kts 39°
2026-04-25 08:50 56.79539 38.13017 24986 ft 470 kts 39°
2026-04-25 08:51 56.81850 38.17222 25446 ft 474 kts 39°
2026-04-25 08:51 56.84193 38.21479 25943 ft 478 kts 39°
2026-04-25 08:51 56.86541 38.25744 26424 ft 481 kts 39°
2026-04-25 08:51 56.88962 38.29993 26851 ft 483 kts 35°
2026-04-25 08:52 56.91507 38.33963 27306 ft 485 kts 34°
2026-04-25 08:52 56.94062 38.37904 27773 ft 488 kts 34°
2026-04-25 08:52 56.96648 38.41915 28224 ft 491 kts 34°
2026-04-25 08:52 56.99220 38.45922 28649 ft 495 kts 34°
2026-04-25 08:53 57.01858 38.50049 29097 ft 497 kts 34°
2026-04-25 08:53 57.04449 38.54119 29662 ft 497 kts 34°
2026-04-25 08:53 57.07055 38.58226 30299 ft 495 kts 34°
2026-04-25 08:53 57.09646 38.62322 30903 ft 493 kts 34°
2026-04-25 08:54 57.12254 38.66451 31411 ft 493 kts 35°
2026-04-25 08:54 57.14834 38.70546 31837 ft 493 kts 35°
2026-04-25 08:54 57.17451 38.74710 32279 ft 493 kts 35°
2026-04-25 08:54 57.19999 38.78772 32582 ft 494 kts 35°
2026-04-25 08:55 57.22630 38.82973 32652 ft 497 kts 35°
2026-04-25 08:55 57.27800 38.91261 32656 ft 494 kts 35°
2026-04-25 08:56 57.32953 38.99553 32664 ft 493 kts 35°
2026-04-25 08:56 57.38097 39.07861 32655 ft 493 kts 35°
2026-04-25 08:57 57.43200 39.16136 32647 ft 492 kts 35°
2026-04-25 08:57 57.48346 39.24514 32640 ft 492 kts 35°
2026-04-25 08:58 57.53478 39.32871 32638 ft 491 kts 34°
2026-04-25 08:58 57.58653 39.41320 32634 ft 490 kts 34°
2026-04-25 08:59 57.63781 39.49726 32639 ft 490 kts 34°
2026-04-25 08:59 57.68864 39.58092 32629 ft 492 kts 34°
2026-04-25 09:00 57.73954 39.66504 32628 ft 489 kts 35°
2026-04-25 09:00 57.79071 39.74992 32623 ft 490 kts 36°
2026-04-25 09:01 57.84134 39.83425 32615 ft 489 kts 36°
2026-04-25 09:01 57.89223 39.91947 32603 ft 490 kts 36°
2026-04-25 09:02 57.94241 40.00445 32596 ft 489 kts 36°
2026-04-25 09:02 57.99246 40.08954 32596 ft 490 kts 36°
2026-04-25 09:03 58.04317 40.17607 32610 ft 490 kts 36°
2026-04-25 09:03 58.09333 40.26199 32610 ft 491 kts 36°
2026-04-25 09:04 58.14392 40.34899 32611 ft 491 kts 36°
2026-04-25 09:04 58.19454 40.43602 32618 ft 491 kts 35°
2026-04-25 09:05 58.24495 40.52216 32614 ft 492 kts 35°
2026-04-25 09:05 58.29575 40.60936 32610 ft 490 kts 35°
2026-04-25 09:06 58.34589 40.69579 32596 ft 490 kts 36°
2026-04-25 09:06 58.39672 40.78376 32587 ft 491 kts 36°
2026-04-25 09:07 58.44692 40.87103 32590 ft 490 kts 36°
2026-04-25 09:07 58.49711 40.95862 32581 ft 490 kts 36°
2026-04-25 09:08 58.54766 41.04721 32579 ft 490 kts 36°
2026-04-25 09:08 58.59752 41.13494 32573 ft 490 kts 36°
2026-04-25 09:09 58.64762 41.22347 32577 ft 488 kts 37°
2026-04-25 09:09 58.69745 41.31186 32582 ft 489 kts 37°
2026-04-25 09:10 58.74700 41.40013 32578 ft 488 kts 37°
2026-04-25 09:10 58.79935 41.48325 32573 ft 485 kts 30°
2026-04-25 09:11 58.88071 41.59858 32552 ft 484 kts 30°
2026-04-25 09:11 58.93483 41.67582 32548 ft 483 kts 31°
2026-04-25 09:12 58.98883 41.75323 32537 ft 484 kts 31°
2026-04-25 09:12 59.04282 41.83102 32539 ft 482 kts 31°
2026-04-25 09:13 59.09673 41.90899 32531 ft 484 kts 31°
2026-04-25 09:13 59.15088 41.98766 32533 ft 484 kts 31°
2026-04-25 09:14 59.20477 42.06627 32539 ft 483 kts 31°
2026-04-25 09:14 59.25891 42.14555 32537 ft 484 kts 31°
2026-04-25 09:15 59.31200 42.22363 32539 ft 484 kts 31°
2026-04-25 09:15 59.36599 42.30340 32539 ft 485 kts 32°
2026-04-25 09:16 59.41425 42.39633 32547 ft 493 kts 42°
2026-04-25 09:16 59.46035 42.49638 32539 ft 494 kts 42°
2026-04-25 09:17 59.52891 42.64617 32531 ft 493 kts 42°
2026-04-25 09:18 59.57460 42.74657 32523 ft 494 kts 43°
2026-04-25 09:18 59.62037 42.84757 32525 ft 495 kts 43°
2026-04-25 09:19 59.66622 42.94920 32515 ft 495 kts 43°
2026-04-25 09:19 59.71213 43.05142 32514 ft 495 kts 43°
2026-04-25 09:20 59.75742 43.15270 32513 ft 495 kts 43°
2026-04-25 09:20 59.80310 43.25490 32510 ft 494 kts 43°
2026-04-25 09:21 59.84835 43.35658 32516 ft 494 kts 43°
2026-04-25 09:21 59.89397 43.45958 32517 ft 495 kts 43°
2026-04-25 09:22 59.93932 43.56242 32512 ft 494 kts 44°
2026-04-25 09:22 59.98451 43.66520 32506 ft 495 kts 44°
2026-04-25 09:23 60.02981 43.76858 32495 ft 496 kts 44°
2026-04-25 09:23 60.07518 43.87262 32489 ft 495 kts 45°
2026-04-25 09:24 60.12035 43.97668 32496 ft 494 kts 45°
2026-04-25 09:24 60.16418 44.07809 32492 ft 496 kts 45°
2026-04-25 09:25 60.20892 44.18208 32495 ft 496 kts 45°
2026-04-25 09:25 60.25377 44.28679 32488 ft 497 kts 45°
2026-04-25 09:26 60.29872 44.39226 32490 ft 497 kts 45°
2026-04-25 09:26 60.34356 44.49792 32484 ft 498 kts 45°
2026-04-25 09:27 60.38842 44.60412 32487 ft 497 kts 45°
2026-04-25 09:27 60.43306 44.71028 32491 ft 500 kts 46°
2026-04-25 09:28 60.47800 44.81768 32487 ft 499 kts 46°
2026-04-25 09:28 60.52260 44.92477 32484 ft 500 kts 46°
2026-04-25 09:29 60.56587 45.02913 32472 ft 501 kts 46°
2026-04-25 09:29 60.61022 45.13661 32466 ft 500 kts 47°
2026-04-25 09:30 60.65473 45.24497 32468 ft 501 kts 47°
2026-04-25 09:30 60.69919 45.35370 32471 ft 501 kts 47°
2026-04-25 09:31 60.74365 45.46291 32467 ft 501 kts 47°
2026-04-25 09:31 60.78801 45.57156 32456 ft 500 kts 47°
2026-04-25 09:32 60.83219 45.68024 32453 ft 500 kts 48°
2026-04-25 09:32 60.87696 45.79091 32453 ft 502 kts 48°
2026-04-25 09:33 60.92043 45.89890 32453 ft 502 kts 49°
2026-04-25 09:33 60.96441 46.00868 32456 ft 503 kts 49°
2026-04-25 09:34 61.00867 46.11969 32447 ft 502 kts 49°
2026-04-25 09:34 61.05111 46.22682 32444 ft 503 kts 49°
2026-04-25 09:35 61.09466 46.33905 32430 ft 503 kts 49°
2026-04-25 09:35 61.13829 46.45211 32436 ft 504 kts 49°
2026-04-25 09:36 61.18182 46.56541 32439 ft 504 kts 49°
2026-04-25 09:36 61.22548 46.67959 32432 ft 504 kts 51°
2026-04-25 09:37 61.26856 46.79296 32429 ft 505 kts 51°
2026-04-25 09:37 61.31034 46.90365 32429 ft 505 kts 51°
2026-04-25 09:38 61.35477 47.02193 32443 ft 505 kts 51°
2026-04-25 09:38 61.39805 47.13773 32436 ft 504 kts 51°
2026-04-25 09:39 61.44080 47.25270 32435 ft 505 kts 51°
2026-04-25 09:39 61.48396 47.36943 32422 ft 506 kts 51°
2026-04-25 09:40 61.54834 47.54478 32416 ft 506 kts 51°
2026-04-25 09:40 61.59132 47.66299 32421 ft 507 kts 52°
2026-04-25 09:41 61.63398 47.78090 32421 ft 506 kts 52°
2026-04-25 09:41 61.67622 47.89821 32420 ft 506 kts 52°
2026-04-25 09:42 61.71801 48.01489 32419 ft 507 kts 52°
2026-04-25 09:42 61.76009 48.13297 32419 ft 506 kts 52°
2026-04-25 09:43 61.80141 48.24950 32403 ft 506 kts 52°
2026-04-25 09:43 61.84332 48.36829 32402 ft 506 kts 53°
2026-04-25 09:44 61.88526 48.48782 32405 ft 506 kts 53°
2026-04-25 09:44 61.92653 48.60601 32405 ft 507 kts 53°
2026-04-25 09:45 61.96687 48.72214 32400 ft 507 kts 54°
2026-04-25 09:45 62.00841 48.84235 32404 ft 508 kts 54°
2026-04-25 09:46 62.04892 48.96021 32401 ft 508 kts 54°
2026-04-25 09:46 62.09133 49.08421 32403 ft 508 kts 54°
2026-04-25 09:47 62.13060 49.19932 32403 ft 507 kts 54°
2026-04-25 09:47 62.17212 49.32106 32398 ft 507 kts 54°
2026-04-25 09:48 62.21087 49.43528 32400 ft 508 kts 54°
2026-04-25 09:48 62.25244 49.55845 32391 ft 507 kts 54°
2026-04-25 09:49 62.29240 49.67750 32386 ft 508 kts 55°
2026-04-25 09:49 62.33349 49.80057 32382 ft 508 kts 55°
2026-04-25 09:50 62.37421 49.92319 32385 ft 507 kts 56°
2026-04-25 09:50 62.41399 50.04364 32382 ft 507 kts 56°
2026-04-25 09:51 62.45474 50.16768 32377 ft 506 kts 55°
2026-04-25 09:51 62.49448 50.28930 32380 ft 507 kts 56°
2026-04-25 09:52 62.53498 50.41390 32382 ft 507 kts 56°
2026-04-25 09:52 62.57365 50.53281 32374 ft 508 kts 55°
2026-04-25 09:53 62.61435 50.65743 32367 ft 508 kts 56°
2026-04-25 09:53 62.65479 50.78196 32363 ft 508 kts 56°
2026-04-25 09:54 62.69495 50.90637 32366 ft 507 kts 56°
2026-04-25 09:54 62.73501 51.03115 32370 ft 507 kts 56°
2026-04-25 09:55 62.77442 51.15507 32375 ft 506 kts 57°
2026-04-25 09:55 62.81431 51.28154 32375 ft 506 kts 57°
2026-04-25 09:56 62.85418 51.40863 32382 ft 508 kts 57°
2026-04-25 09:56 62.89395 51.53610 32383 ft 507 kts 57°
2026-04-25 09:57 62.93262 51.66071 32380 ft 507 kts 58°
2026-04-25 09:57 62.97208 51.78859 32373 ft 505 kts 58°
2026-04-25 09:58 63.01088 51.91501 32373 ft 506 kts 58°
2026-04-25 09:58 63.04935 52.04107 32373 ft 505 kts 58°
2026-04-25 09:59 63.08829 52.16940 32374 ft 506 kts 58°
2026-04-25 09:59 63.12738 52.29895 32372 ft 506 kts 58°
2026-04-25 10:00 63.16633 52.42876 32373 ft 505 kts 58°
2026-04-25 10:00 63.20513 52.55924 32376 ft 506 kts 58°
2026-04-25 10:01 63.24364 52.68987 32381 ft 505 kts 59°
2026-04-25 10:01 63.27962 52.81256 32384 ft 505 kts 59°
2026-04-25 10:02 63.31990 52.95076 32367 ft 505 kts 59°
2026-04-25 10:02 63.35787 53.08175 32379 ft 506 kts 59°
2026-04-25 10:03 63.39590 53.21371 32387 ft 505 kts 59°
2026-04-25 10:03 63.43247 53.34134 32388 ft 506 kts 59°
2026-04-25 10:04 63.46997 53.47298 32391 ft 506 kts 59°
2026-04-25 10:04 63.50749 53.60547 32393 ft 505 kts 59°
2026-04-25 10:05 63.54454 53.73692 32394 ft 504 kts 59°
2026-04-25 10:05 63.58970 53.85323 32401 ft 508 kts 43°
2026-04-25 10:06 63.64336 53.95916 32408 ft 510 kts 43°
2026-04-25 10:06 63.69480 54.06103 32412 ft 510 kts 43°
2026-04-25 10:07 63.74677 54.16473 32415 ft 509 kts 43°
2026-04-25 10:07 63.79932 54.27029 32416 ft 510 kts 43°
2026-04-25 10:08 63.85207 54.37691 32418 ft 509 kts 43°
2026-04-25 10:08 63.90507 54.48465 32420 ft 510 kts 43°
2026-04-25 10:09 63.95742 54.59164 32422 ft 510 kts 43°
2026-04-25 10:09 64.00717 54.69388 32419 ft 508 kts 44°
2026-04-25 10:10 64.05935 54.80165 32429 ft 508 kts 44°
2026-04-25 10:10 64.11154 54.91004 32430 ft 508 kts 44°
2026-04-25 10:11 64.16316 55.01796 32426 ft 509 kts 44°
2026-04-25 10:11 64.21366 55.12413 32432 ft 509 kts 44°
2026-04-25 10:12 64.26575 55.23418 32440 ft 510 kts 44°
2026-04-25 10:13 64.34319 55.39891 32446 ft 508 kts 44°
2026-04-25 10:13 64.39468 55.50917 32450 ft 508 kts 44°
2026-04-25 10:14 64.44627 55.62024 32458 ft 508 kts 44°
2026-04-25 10:14 64.49762 55.73140 32457 ft 508 kts 45°
2026-04-25 10:15 64.54859 55.84233 32465 ft 508 kts 45°
2026-04-25 10:15 64.59974 55.95423 32468 ft 508 kts 45°
2026-04-25 10:16 64.65095 56.06690 32467 ft 508 kts 45°
2026-04-25 10:16 64.70192 56.17963 32484 ft 507 kts 45°
2026-04-25 10:17 64.75112 56.28905 32488 ft 508 kts 45°
2026-04-25 10:17 64.80193 56.40266 32492 ft 507 kts 45°
2026-04-25 10:18 64.85298 56.51743 32490 ft 507 kts 45°
2026-04-25 10:18 64.90415 56.63302 32494 ft 508 kts 45°
2026-04-25 10:19 64.95480 56.74801 32494 ft 507 kts 46°
2026-04-25 10:19 65.00359 56.85941 32494 ft 507 kts 46°
2026-04-25 10:20 65.05318 56.97325 32496 ft 508 kts 46°
2026-04-25 10:20 65.10358 57.08960 32498 ft 508 kts 46°
2026-04-25 10:21 65.14988 57.19980 32507 ft 506 kts 48°
2026-04-25 10:21 65.19824 57.32102 32509 ft 506 kts 48°
2026-04-25 10:22 65.24641 57.44220 32504 ft 506 kts 48°
2026-04-25 10:22 65.29487 57.56459 32492 ft 508 kts 48°
2026-04-25 10:23 65.34337 57.68768 32513 ft 507 kts 49°
2026-04-25 10:23 65.39146 57.81033 32502 ft 507 kts 49°
2026-04-25 10:24 65.43884 57.93179 32505 ft 506 kts 49°
2026-04-25 10:24 65.48691 58.05571 32523 ft 507 kts 49°
2026-04-25 10:25 65.53310 58.17547 32535 ft 508 kts 49°
2026-04-25 10:25 65.58074 58.29967 32534 ft 507 kts 49°
2026-04-25 10:26 65.62843 58.42469 32536 ft 506 kts 49°
2026-04-25 10:26 65.67587 58.54982 32535 ft 507 kts 49°
2026-04-25 10:27 65.72349 58.67615 32530 ft 506 kts 50°
2026-04-25 10:27 65.77092 58.80273 32537 ft 506 kts 50°
2026-04-25 10:28 65.81816 58.92955 32534 ft 506 kts 50°
2026-04-25 10:28 65.86549 59.05736 32535 ft 506 kts 50°
2026-04-25 10:29 65.96047 59.31612 32552 ft 506 kts 49°
2026-04-25 10:30 66.00719 59.44453 32563 ft 506 kts 49°
2026-04-25 10:30 66.05263 59.57022 32563 ft 505 kts 50°
2026-04-25 10:31 66.09635 59.69237 32554 ft 505 kts 51°
2026-04-25 10:31 66.14265 59.82265 32557 ft 507 kts 51°
2026-04-25 10:32 66.18864 59.95279 32555 ft 506 kts 51°
2026-04-25 10:32 66.23486 60.08437 32558 ft 506 kts 51°
2026-04-25 10:33 66.27962 60.21256 32558 ft 506 kts 51°
2026-04-25 10:33 66.32288 60.33717 32562 ft 505 kts 51°
2026-04-25 10:34 66.36868 60.46988 32565 ft 505 kts 51°
2026-04-25 10:34 66.41401 60.60203 32565 ft 506 kts 51°
2026-04-25 10:35 66.46034 60.73793 32570 ft 506 kts 52°
2026-04-25 10:35 66.50601 60.87285 32569 ft 506 kts 52°
2026-04-25 10:36 66.55096 61.00651 32570 ft 506 kts 52°
2026-04-25 10:36 66.59398 61.13518 32572 ft 506 kts 52°
2026-04-25 10:37 66.63592 61.26136 32583 ft 505 kts 52°
2026-04-25 10:37 66.68068 61.39687 32614 ft 511 kts 52°
2026-04-25 10:37 66.70354 61.46639 32837 ft 513 kts 52°
2026-04-25 10:38 66.72608 61.53516 33199 ft 509 kts 51°
2026-04-25 10:38 66.74409 61.59022 33497 ft 507 kts 51°
2026-04-25 10:38 66.76756 61.66227 33764 ft 510 kts 52°
2026-04-25 10:38 66.79020 61.73196 34005 ft 513 kts 52°
2026-04-25 10:39 66.81267 61.80135 34327 ft 513 kts 52°
2026-04-25 10:39 66.83181 61.86063 34543 ft 515 kts 52°
2026-04-25 10:39 66.85605 61.93594 34585 ft 514 kts 52°
2026-04-25 10:40 66.89994 62.07296 34588 ft 510 kts 52°
2026-04-25 10:40 66.94484 62.21404 34598 ft 510 kts 52°
2026-04-25 10:41 66.98922 62.35439 34595 ft 510 kts 52°
2026-04-25 10:41 67.03129 62.48825 34610 ft 510 kts 52°
2026-04-25 10:42 67.07584 62.63038 34607 ft 511 kts 52°
2026-04-25 10:42 67.11993 62.77137 34602 ft 510 kts 53°
2026-04-25 10:43 67.16446 62.91466 34612 ft 510 kts 53°
2026-04-25 10:43 67.20860 63.05765 34601 ft 510 kts 53°
2026-04-25 10:44 67.25234 63.20030 34603 ft 509 kts 53°
2026-04-25 10:44 67.29622 63.34441 34610 ft 511 kts 53°
2026-04-25 10:45 67.33988 63.48872 34606 ft 510 kts 53°
2026-04-25 10:45 67.38321 63.63285 34611 ft 510 kts 53°
2026-04-25 10:46 67.42684 63.77901 34617 ft 510 kts 53°
2026-04-25 10:46 67.46978 63.92480 34619 ft 509 kts 57°
2026-04-25 10:47 67.50145 64.08764 34621 ft 504 kts 72°
2026-04-25 10:47 67.52497 64.26028 34608 ft 505 kts 72°
2026-04-25 10:48 67.54791 64.43283 34607 ft 505 kts 72°
2026-04-25 10:48 67.57067 64.60636 34626 ft 505 kts 72°
2026-04-25 10:49 67.59306 64.77917 34636 ft 504 kts 73°
2026-04-25 10:49 67.61536 64.95300 34626 ft 504 kts 73°
2026-04-25 10:50 67.63764 65.12734 34642 ft 506 kts 73°
2026-04-25 10:50 67.65976 65.30228 34645 ft 505 kts 73°
2026-04-25 10:51 67.68166 65.47739 34642 ft 505 kts 73°
2026-04-25 10:51 67.70315 65.65100 34645 ft 505 kts 74°
2026-04-25 10:52 67.72478 65.82747 34635 ft 504 kts 74°
2026-04-25 10:52 67.74618 66.00314 34622 ft 504 kts 74°
2026-04-25 10:53 67.76731 66.17848 34617 ft 504 kts 74°
2026-04-25 10:53 67.78828 66.35430 34613 ft 505 kts 74°
2026-04-25 10:54 67.80910 66.53085 34626 ft 504 kts 74°
2026-04-25 10:54 67.82968 66.70731 34617 ft 505 kts 75°
2026-04-25 10:55 67.85027 66.88457 34613 ft 504 kts 75°
2026-04-25 10:55 67.87060 67.06146 34660 ft 504 kts 75°
2026-04-25 10:56 67.89082 67.23937 34670 ft 505 kts 75°
2026-04-25 10:56 67.91078 67.41702 34673 ft 505 kts 75°
2026-04-25 10:57 67.93063 67.59589 34692 ft 505 kts 75°
2026-04-25 10:57 67.95016 67.77473 34691 ft 504 kts 76°
2026-04-25 10:58 67.96938 67.95278 34694 ft 504 kts 76°
2026-04-25 10:58 67.98852 68.13215 34705 ft 504 kts 76°
2026-04-25 10:59 68.00746 68.31179 34701 ft 504 kts 76°
2026-04-25 10:59 68.02618 68.49152 34709 ft 505 kts 76°
2026-04-25 11:00 68.04471 68.67148 34711 ft 505 kts 76°
2026-04-25 11:00 68.06306 68.85194 34720 ft 505 kts 76°
2026-04-25 11:01 68.08114 69.03191 34727 ft 504 kts 76°
2026-04-25 11:01 68.09907 69.21278 34727 ft 504 kts 76°
2026-04-25 11:02 68.11675 69.39322 34730 ft 504 kts 76°
2026-04-25 11:02 68.13430 69.57469 34736 ft 504 kts 76°
2026-04-25 11:03 68.15176 69.75761 34737 ft 504 kts 77°
2026-04-25 11:03 68.16888 69.93935 34744 ft 505 kts 77°
2026-04-25 11:04 68.18577 70.12092 34741 ft 504 kts 77°
2026-04-25 11:04 68.20248 70.30311 34748 ft 504 kts 77°
2026-04-25 11:05 68.21902 70.48572 34753 ft 504 kts 77°
2026-04-25 11:05 68.23531 70.66809 34753 ft 503 kts 78°
2026-04-25 11:06 68.25145 70.85137 34751 ft 503 kts 78°
2026-04-25 11:06 68.26739 71.03503 34752 ft 504 kts 78°
2026-04-25 11:07 68.28306 71.21793 34759 ft 505 kts 78°
2026-04-25 11:07 68.29866 71.40232 34762 ft 505 kts 78°
2026-04-25 11:08 68.31409 71.58731 34764 ft 504 kts 78°
2026-04-25 11:08 68.32923 71.77135 34775 ft 504 kts 79°
2026-04-25 11:09 68.34411 71.95509 34779 ft 505 kts 79°
2026-04-25 11:09 68.35889 72.14023 34792 ft 505 kts 79°
2026-04-25 11:10 68.37347 72.32591 34794 ft 505 kts 79°
2026-04-25 11:10 68.38788 72.51205 34797 ft 505 kts 79°
2026-04-25 11:11 68.40200 72.69749 34798 ft 504 kts 80°
2026-04-25 11:11 68.41589 72.88284 34799 ft 505 kts 80°
2026-04-25 11:12 68.42964 73.06920 34802 ft 505 kts 80°
2026-04-25 11:12 68.44319 73.25594 34804 ft 505 kts 80°
2026-04-25 11:13 68.45644 73.44156 34810 ft 504 kts 79°
2026-04-25 11:13 68.46960 73.62827 34813 ft 505 kts 78°
2026-04-25 11:14 68.49025 73.81139 34817 ft 506 kts 72°
2026-04-25 11:14 68.51208 73.99250 34815 ft 506 kts 73°
2026-04-25 11:15 68.53322 74.17359 34827 ft 505 kts 73°
2026-04-25 11:15 68.55402 74.35601 34833 ft 505 kts 73°
2026-04-25 11:16 68.58469 74.63071 34835 ft 506 kts 73°
2026-04-25 11:16 68.60485 74.81477 34836 ft 506 kts 74°
2026-04-25 11:17 68.62481 74.99930 34840 ft 506 kts 74°
2026-04-25 11:17 68.64445 75.18333 34843 ft 505 kts 74°
2026-04-25 11:18 68.66390 75.36773 34846 ft 505 kts 74°
2026-04-25 11:18 68.68313 75.55235 34849 ft 506 kts 74°
2026-04-25 11:19 68.70224 75.73809 34849 ft 506 kts 75°
2026-04-25 11:19 68.72124 75.92517 34849 ft 507 kts 75°
2026-04-25 11:20 68.73993 76.11146 34847 ft 506 kts 75°
2026-04-25 11:20 68.75830 76.29693 34855 ft 507 kts 75°
2026-04-25 11:21 68.77665 76.48452 34861 ft 506 kts 75°
2026-04-25 11:21 68.79466 76.67120 34866 ft 506 kts 76°
2026-04-25 11:22 68.80965 76.82824 34877 ft 506 kts 75°
2026-04-25 11:22 68.83021 77.04677 34887 ft 507 kts 75°
2026-04-25 11:23 68.84765 77.23475 34890 ft 507 kts 75°
2026-04-25 11:23 68.86485 77.42276 34890 ft 507 kts 75°
2026-04-25 11:24 68.88191 77.61176 34890 ft 507 kts 75°
2026-04-25 11:24 68.89880 77.80139 34886 ft 507 kts 76°
2026-04-25 11:25 68.91543 77.99091 34885 ft 506 kts 76°
2026-04-25 11:25 68.93180 78.18014 34879 ft 506 kts 76°
2026-04-25 11:26 68.94796 78.36957 34878 ft 507 kts 76°
2026-04-25 11:26 68.96396 78.55988 34886 ft 508 kts 76°
2026-04-25 11:27 68.97980 78.75114 34885 ft 509 kts 77°
2026-04-25 11:27 68.99280 78.91030 34886 ft 509 kts 77°
2026-04-25 11:28 69.01067 79.13408 34899 ft 511 kts 77°
2026-04-25 11:28 69.02566 79.32663 34892 ft 510 kts 77°
2026-04-25 11:29 69.04037 79.51866 34908 ft 509 kts 77°
2026-04-25 11:29 69.05499 79.71259 34892 ft 509 kts 78°
2026-04-25 11:30 69.06930 79.90576 34887 ft 510 kts 78°
2026-04-25 11:30 69.08340 80.09907 34898 ft 510 kts 78°
2026-04-25 11:31 69.09731 80.29320 34900 ft 510 kts 78°
2026-04-25 11:31 69.11086 80.48557 34917 ft 510 kts 78°
2026-04-25 11:32 69.12443 80.68148 34921 ft 510 kts 79°
2026-04-25 11:32 69.13773 80.87689 34932 ft 510 kts 79°
2026-04-25 11:33 69.15080 81.07263 34922 ft 512 kts 79°
2026-04-25 11:33 69.16362 81.26806 34936 ft 512 kts 79°
2026-04-25 11:34 69.17629 81.46484 34931 ft 512 kts 78°
2026-04-25 11:34 69.18861 81.65976 34930 ft 511 kts 79°
2026-04-25 11:35 69.20081 81.85671 34934 ft 511 kts 79°
2026-04-25 11:35 69.21259 82.05055 34939 ft 512 kts 79°
2026-04-25 11:36 69.22435 82.24798 34930 ft 511 kts 79°
2026-04-25 11:36 69.23582 82.44444 34935 ft 511 kts 79°
2026-04-25 11:37 69.24708 82.64139 34940 ft 512 kts 79°
2026-04-25 11:37 69.25817 82.83963 34942 ft 512 kts 80°
2026-04-25 11:38 69.26880 83.03361 34931 ft 511 kts 80°
2026-04-25 11:38 69.27945 83.23241 34943 ft 512 kts 80°
2026-04-25 11:39 69.28984 83.43070 34954 ft 511 kts 80°
2026-04-25 11:39 69.30002 83.62959 34943 ft 510 kts 80°
2026-04-25 11:40 69.30984 83.82604 34944 ft 511 kts 81°
2026-04-25 11:40 69.31964 84.02670 34947 ft 511 kts 81°
2026-04-25 11:41 69.32912 84.22580 34956 ft 510 kts 81°
2026-04-25 11:41 69.33840 84.42563 34955 ft 511 kts 81°
2026-04-25 11:42 69.34738 84.62405 34966 ft 511 kts 81°
2026-04-25 11:42 69.35616 84.82346 34948 ft 512 kts 82°
2026-04-25 11:43 69.36477 85.02413 34951 ft 511 kts 82°
2026-04-25 11:43 69.37312 85.22429 34966 ft 511 kts 82°
2026-04-25 11:44 69.38121 85.42412 34958 ft 511 kts 82°
2026-04-25 11:44 69.38911 85.62514 34972 ft 511 kts 82°
2026-04-25 11:45 69.39671 85.82410 34986 ft 510 kts 83°
2026-04-25 11:45 69.40414 86.02516 34988 ft 511 kts 83°
2026-04-25 11:46 69.40381 86.22594 34991 ft 512 kts 98°
2026-04-25 11:46 69.38809 86.42302 34998 ft 513 kts 104°
2026-04-25 11:47 69.37013 86.61886 34985 ft 513 kts 104°
2026-04-25 11:47 69.35144 86.81438 34993 ft 514 kts 105°
2026-04-25 11:48 69.33232 87.00877 34977 ft 514 kts 105°
2026-04-25 11:48 69.31313 87.20207 34967 ft 513 kts 103°
2026-04-25 11:49 69.30656 87.40170 34975 ft 511 kts 85°
2026-04-25 11:49 69.31403 87.60057 34971 ft 511 kts 81°
2026-04-25 11:50 69.32195 87.79877 34962 ft 510 kts 82°
2026-04-25 11:50 69.32958 87.99863 34961 ft 511 kts 83°
2026-04-25 11:51 69.33692 88.19876 34962 ft 510 kts 83°
2026-04-25 11:51 69.34396 88.39791 34971 ft 511 kts 82°
2026-04-25 11:52 69.35094 88.59615 34972 ft 511 kts 82°
2026-04-25 11:52 69.35775 88.79675 34963 ft 511 kts 83°
2026-04-25 11:53 69.36428 88.99633 34986 ft 510 kts 83°
2026-04-25 11:53 69.37054 89.19481 35005 ft 510 kts 83°
2026-04-25 11:54 69.37665 89.39589 35005 ft 510 kts 83°
2026-04-25 11:55 69.38529 89.69530 35014 ft 509 kts 84°
2026-04-25 11:55 69.39075 89.89427 35009 ft 509 kts 84°
2026-04-25 11:56 69.39603 90.09532 35006 ft 509 kts 84°
2026-04-25 11:56 69.40105 90.29567 34980 ft 510 kts 84°
2026-04-25 11:57 69.40585 90.49604 34987 ft 510 kts 84°
2026-04-25 11:57 69.41042 90.69533 34961 ft 510 kts 85°
2026-04-25 11:58 69.41531 90.89651 34931 ft 509 kts 85°
2026-04-25 11:58 69.41996 91.09597 34944 ft 509 kts 85°
2026-04-25 11:59 69.42437 91.29571 34882 ft 508 kts 85°
2026-04-25 11:59 69.42851 91.49386 34958 ft 508 kts 85°
2026-04-25 12:00 69.43433 91.79383 34886 ft 509 kts 86°
2026-04-25 12:01 69.43964 92.09403 34849 ft 508 kts 86°
2026-04-25 12:01 69.44289 92.29423 34861 ft 508 kts 86°
2026-04-25 12:02 69.44733 92.59490 34846 ft 507 kts 86°
2026-04-25 12:02 69.44998 92.79398 34836 ft 507 kts 87°
2026-04-25 12:03 69.45242 92.99347 34856 ft 507 kts 87°
2026-04-25 12:03 69.45463 93.19393 34851 ft 507 kts 87°
2026-04-25 12:04 69.45660 93.39376 34857 ft 507 kts 87°
2026-04-25 12:04 69.45835 93.59358 34905 ft 507 kts 87°
2026-04-25 12:05 69.45986 93.79223 34876 ft 506 kts 88°
2026-04-25 12:05 69.46115 93.99294 34851 ft 506 kts 88°
2026-04-25 12:06 69.46221 94.19257 34870 ft 507 kts 88°
2026-04-25 12:06 69.46304 94.39295 34892 ft 506 kts 88°
2026-04-25 12:07 69.46364 94.59146 34881 ft 506 kts 88°
2026-04-25 12:07 69.46402 94.79121 34832 ft 505 kts 89°
2026-04-25 12:08 69.46416 94.98986 34813 ft 504 kts 89°
2026-04-25 12:08 69.46369 95.18848 34818 ft 504 kts 90°
2026-04-25 12:09 69.46285 95.38747 34824 ft 503 kts 90°
2026-04-25 12:09 69.46181 95.58504 34816 ft 503 kts 90°
2026-04-25 12:10 69.46055 95.78355 34830 ft 504 kts 91°
2026-04-25 12:10 69.45905 95.98340 34897 ft 503 kts 91°
2026-04-25 12:11 69.45735 96.18082 34894 ft 504 kts 91°
2026-04-25 12:11 69.45543 96.37880 34840 ft 502 kts 91°
2026-04-25 12:12 69.45364 96.54419 34858 ft 502 kts 91°
2026-04-25 12:12 69.45089 96.77524 34883 ft 502 kts 92°
2026-04-25 12:13 69.44830 96.97208 34895 ft 501 kts 92°
2026-04-25 12:13 69.44548 97.16994 34900 ft 501 kts 92°
2026-04-25 12:14 69.44244 97.36674 34924 ft 501 kts 92°
2026-04-25 12:14 69.43921 97.56249 34946 ft 501 kts 92°
2026-04-25 12:15 69.43572 97.76019 34881 ft 500 kts 92°
2026-04-25 12:15 69.43202 97.95658 34874 ft 501 kts 92°
2026-04-25 12:16 69.42808 98.15387 34886 ft 500 kts 93°
2026-04-25 12:16 69.42395 98.34967 34889 ft 499 kts 92°
2026-04-25 12:17 69.41960 98.54566 34946 ft 500 kts 92°
2026-04-25 12:17 69.41502 98.74191 34938 ft 500 kts 94°
2026-04-25 12:18 69.41019 98.93860 34942 ft 501 kts 94°
2026-04-25 12:18 69.40519 99.13400 34952 ft 500 kts 94°
2026-04-25 12:19 69.39724 99.42785 34965 ft 500 kts 94°
2026-04-25 12:20 69.39165 99.62364 34964 ft 499 kts 94°
2026-04-25 12:20 69.38584 99.81872 34968 ft 499 kts 94°
2026-04-25 12:21 69.37978 100.01463 34954 ft 500 kts 94°
2026-04-25 12:21 69.37353 100.20996 34956 ft 501 kts 94°
2026-04-25 12:22 69.36703 100.40588 34962 ft 501 kts 94°
2026-04-25 12:22 69.36029 100.60196 34952 ft 502 kts 95°
2026-04-25 12:23 69.35334 100.79778 34957 ft 501 kts 95°
2026-04-25 12:23 69.34618 100.99339 34964 ft 502 kts 96°
2026-04-25 12:24 69.33880 101.18863 34959 ft 502 kts 96°
2026-04-25 12:24 69.33119 101.38398 34969 ft 503 kts 96°
2026-04-25 12:25 69.32336 101.58010 34965 ft 504 kts 95°
2026-04-25 12:25 69.31551 101.77649 34964 ft 504 kts 96°
2026-04-25 12:26 69.30743 101.97285 34983 ft 504 kts 96°
2026-04-25 12:26 69.29918 102.16776 34987 ft 503 kts 96°
2026-04-25 12:27 69.29071 102.36241 34974 ft 502 kts 96°
2026-04-25 12:27 69.28200 102.55715 34973 ft 502 kts 96°
2026-04-25 12:28 69.27308 102.75195 34974 ft 502 kts 97°
2026-04-25 12:28 69.26396 102.94598 34974 ft 500 kts 97°
2026-04-25 12:29 69.25460 103.14019 34978 ft 502 kts 98°
2026-04-25 12:29 69.24483 103.33330 34977 ft 500 kts 98°
2026-04-25 12:30 69.23483 103.52622 34980 ft 499 kts 98°
2026-04-25 12:30 69.22459 103.71960 34986 ft 499 kts 99°
2026-04-25 12:31 69.21416 103.91232 34982 ft 498 kts 99°
2026-04-25 12:31 69.20358 104.10374 34965 ft 498 kts 99°
2026-04-25 12:32 69.19282 104.29443 34975 ft 498 kts 99°
2026-04-25 12:32 69.18181 104.48570 34977 ft 498 kts 99°
2026-04-25 12:33 69.17062 104.67597 34984 ft 497 kts 100°
2026-04-25 12:33 69.15913 104.86791 34982 ft 497 kts 100°
2026-04-25 12:34 69.14746 105.05882 34977 ft 497 kts 100°
2026-04-25 12:34 69.13563 105.24873 34976 ft 497 kts 100°
2026-04-25 12:35 69.12359 105.43868 34981 ft 497 kts 100°
2026-04-25 12:35 69.11135 105.62804 34980 ft 497 kts 100°
2026-04-25 12:36 69.09883 105.81837 34975 ft 497 kts 101°
2026-04-25 12:36 69.08624 106.00639 34975 ft 496 kts 101°
2026-04-25 12:37 69.07338 106.19506 34971 ft 496 kts 101°
2026-04-25 12:37 69.06032 106.38347 34986 ft 496 kts 101°
2026-04-25 12:38 69.04710 106.57095 34989 ft 495 kts 101°
2026-04-25 12:38 69.03373 106.75871 34997 ft 494 kts 102°
2026-04-25 12:39 69.02013 106.94657 35004 ft 494 kts 102°
2026-04-25 12:39 69.00632 107.13415 35005 ft 494 kts 102°
2026-04-25 12:40 68.99234 107.32100 35008 ft 495 kts 102°
2026-04-25 12:40 68.97813 107.50800 35014 ft 494 kts 102°
2026-04-25 12:41 68.96382 107.69333 35026 ft 495 kts 103°
2026-04-25 12:41 68.94914 107.88065 35028 ft 494 kts 103°
2026-04-25 12:42 68.93444 108.06541 35034 ft 494 kts 103°
2026-04-25 12:42 68.91937 108.25193 35026 ft 493 kts 103°
2026-04-25 12:43 68.90424 108.43666 35033 ft 492 kts 103°
2026-04-25 12:43 68.88120 108.71266 35043 ft 493 kts 104°
2026-04-25 12:44 68.86553 108.89705 35051 ft 494 kts 104°
2026-04-25 12:45 68.84161 109.17374 35057 ft 494 kts 104°
2026-04-25 12:45 68.81732 109.44884 35056 ft 493 kts 104°
2026-04-25 12:46 68.80080 109.63283 35060 ft 493 kts 104°
2026-04-25 12:46 68.78423 109.81490 35065 ft 493 kts 105°
2026-04-25 12:47 68.76733 109.99826 35073 ft 493 kts 105°
2026-04-25 12:47 68.75033 110.18020 35086 ft 494 kts 105°
2026-04-25 12:48 68.73305 110.36266 35094 ft 494 kts 105°
2026-04-25 12:48 68.71561 110.54466 35098 ft 495 kts 105°
2026-04-25 12:49 68.69786 110.72747 35093 ft 495 kts 106°
2026-04-25 12:49 68.68002 110.90894 35090 ft 494 kts 106°
2026-04-25 12:50 68.66202 111.08968 35078 ft 494 kts 106°
2026-04-25 12:50 68.64383 111.27016 35084 ft 494 kts 106°
2026-04-25 12:51 68.62537 111.45103 35094 ft 494 kts 106°
2026-04-25 12:51 68.60671 111.63181 35098 ft 494 kts 106°
2026-04-25 12:52 68.58787 111.81201 35099 ft 495 kts 107°
2026-04-25 12:52 68.56874 111.99291 35114 ft 494 kts 107°
2026-04-25 12:53 68.54949 112.17280 35126 ft 495 kts 107°
2026-04-25 12:53 68.53011 112.35181 35137 ft 494 kts 107°
2026-04-25 12:54 68.50996 112.53069 35133 ft 494 kts 108°
2026-04-25 12:54 68.48895 112.70826 35132 ft 494 kts 109°
2026-04-25 12:55 68.47128 112.85599 35129 ft 494 kts 109°
2026-04-25 12:55 68.44630 113.06246 35139 ft 494 kts 109°
2026-04-25 12:56 68.42477 113.23843 35133 ft 494 kts 109°
2026-04-25 12:56 68.40286 113.41554 35131 ft 495 kts 109°
2026-04-25 12:57 68.38090 113.59122 35141 ft 495 kts 109°
2026-04-25 12:57 68.35918 113.76605 35143 ft 493 kts 109°
2026-04-25 12:58 68.33720 113.94303 35139 ft 493 kts 109°
2026-04-25 12:58 68.31521 114.11816 35135 ft 494 kts 109°
2026-04-25 12:59 68.29310 114.29236 35135 ft 494 kts 109°
2026-04-25 12:59 68.27080 114.46620 35137 ft 494 kts 109°
2026-04-25 13:00 68.25581 114.58215 35145 ft 493 kts 109°
2026-04-25 13:00 68.22514 114.81447 35172 ft 494 kts 111°
2026-04-25 13:01 68.20197 114.98714 35154 ft 494 kts 110°
2026-04-25 13:01 68.17857 115.15993 35156 ft 493 kts 110°
2026-04-25 13:02 68.15511 115.33154 35160 ft 492 kts 110°
2026-04-25 13:02 68.13140 115.50337 35166 ft 493 kts 111°
2026-04-25 13:03 68.10757 115.67445 35165 ft 492 kts 111°
2026-04-25 13:03 68.08345 115.84587 35159 ft 492 kts 111°
2026-04-25 13:04 68.05906 116.01768 35177 ft 492 kts 111°
2026-04-25 13:04 68.03487 116.18644 35170 ft 492 kts 112°
2026-04-25 13:05 68.01031 116.35631 35168 ft 492 kts 112°
2026-04-25 13:05 67.98549 116.52629 35161 ft 492 kts 112°
2026-04-25 13:06 67.96068 116.69473 35172 ft 491 kts 113°
2026-04-25 13:06 67.93562 116.86334 35179 ft 491 kts 113°
2026-04-25 13:07 67.91032 117.03198 35184 ft 491 kts 113°
2026-04-25 13:07 67.88494 117.19944 35174 ft 491 kts 113°
2026-04-25 13:08 67.85909 117.36641 35171 ft 490 kts 113°
2026-04-25 13:08 67.83316 117.53238 35161 ft 490 kts 113°
2026-04-25 13:09 67.80702 117.69832 35168 ft 490 kts 114°
2026-04-25 13:09 67.78081 117.86328 35166 ft 490 kts 114°
2026-04-25 13:10 67.75412 118.02988 35170 ft 490 kts 114°
2026-04-25 13:10 67.72759 118.19406 35171 ft 491 kts 114°
2026-04-25 13:11 67.70078 118.35854 35176 ft 491 kts 114°
2026-04-25 13:11 67.67381 118.52268 35181 ft 490 kts 114°
2026-04-25 13:12 67.64669 118.68627 35178 ft 489 kts 115°
2026-04-25 13:12 67.62411 118.82228 35177 ft 489 kts 115°
2026-04-25 13:13 67.59302 119.01338 35178 ft 489 kts 114°
2026-04-25 13:13 67.56621 119.17660 35176 ft 490 kts 114°
2026-04-25 13:14 67.53905 119.34043 35175 ft 490 kts 114°
2026-04-25 13:14 67.51191 119.50271 35173 ft 490 kts 114°
2026-04-25 13:15 67.48454 119.66500 35171 ft 490 kts 115°
2026-04-25 13:15 67.45712 119.82629 35173 ft 490 kts 115°
2026-04-25 13:16 67.42921 119.98898 35177 ft 491 kts 115°
2026-04-25 13:16 67.40131 120.15038 35183 ft 490 kts 115°
2026-04-25 13:17 67.37318 120.31176 35189 ft 490 kts 115°
2026-04-25 13:17 67.34513 120.47146 35175 ft 489 kts 115°
2026-04-25 13:18 67.31686 120.63105 35173 ft 488 kts 115°
2026-04-25 13:18 67.28842 120.79037 35178 ft 488 kts 116°
2026-04-25 13:19 67.25967 120.95016 35176 ft 488 kts 116°
2026-04-25 13:19 67.24068 121.05497 35174 ft 487 kts 116°
2026-04-25 13:20 67.20204 121.26668 35186 ft 488 kts 116°
2026-04-25 13:20 67.17300 121.42432 35190 ft 488 kts 116°
2026-04-25 13:21 67.14378 121.58176 35188 ft 488 kts 117°
2026-04-25 13:21 67.11443 121.73858 35198 ft 488 kts 117°
2026-04-25 13:22 67.08476 121.89601 35191 ft 488 kts 117°
2026-04-25 13:23 67.04010 122.13068 35201 ft 488 kts 117°
2026-04-25 13:23 67.01049 122.28477 35208 ft 487 kts 117°
2026-04-25 13:24 66.97986 122.43903 35212 ft 487 kts 119°
2026-04-25 13:24 66.94836 122.59082 35212 ft 486 kts 119°
2026-04-25 13:25 66.91688 122.74175 35216 ft 484 kts 120°
2026-04-25 13:25 66.88519 122.89278 35223 ft 485 kts 120°
2026-04-25 13:26 66.85339 123.04345 35230 ft 485 kts 120°
2026-04-25 13:26 66.82136 123.19413 35234 ft 484 kts 120°
2026-04-25 13:27 66.79015 123.34636 35229 ft 485 kts 114°
2026-04-25 13:27 66.77259 123.51171 35238 ft 490 kts 102°
2026-04-25 13:28 66.75970 123.68195 35235 ft 491 kts 103°
2026-04-25 13:28 66.74667 123.85065 35235 ft 490 kts 103°
2026-04-25 13:29 66.73330 124.01998 35241 ft 490 kts 103°
2026-04-25 13:29 66.71978 124.18831 35216 ft 489 kts 103°
2026-04-25 13:30 66.69913 124.44037 35209 ft 489 kts 103°
2026-04-25 13:31 66.67811 124.69134 35201 ft 487 kts 104°
2026-04-25 13:31 66.66379 124.85935 35217 ft 487 kts 104°
2026-04-25 13:32 66.64947 125.02504 35184 ft 487 kts 104°
2026-04-25 13:32 66.63486 125.19193 35183 ft 487 kts 104°
2026-04-25 13:33 66.62006 125.35863 35181 ft 487 kts 104°
2026-04-25 13:33 66.60515 125.52451 35185 ft 487 kts 104°
2026-04-25 13:34 66.59003 125.69054 35164 ft 486 kts 105°
2026-04-25 13:34 66.57487 125.85493 35134 ft 487 kts 105°
2026-04-25 13:35 66.55938 126.02080 35114 ft 487 kts 105°
2026-04-25 13:35 66.54376 126.18605 35089 ft 486 kts 105°
2026-04-25 13:36 66.52798 126.35077 35089 ft 486 kts 105°
2026-04-25 13:36 66.51199 126.51580 35057 ft 486 kts 105°
2026-04-25 13:37 66.49596 126.67925 35070 ft 486 kts 106°
2026-04-25 13:37 66.47965 126.84354 35072 ft 486 kts 106°
2026-04-25 13:38 66.46316 127.00768 35076 ft 485 kts 106°
2026-04-25 13:38 66.44662 127.17038 35103 ft 486 kts 106°
2026-04-25 13:39 66.42996 127.33257 35099 ft 486 kts 106°
2026-04-25 13:39 66.41303 127.49542 35087 ft 486 kts 106°
2026-04-25 13:40 66.39596 127.65769 35046 ft 485 kts 107°
2026-04-25 13:40 66.37882 127.81892 35047 ft 486 kts 107°
2026-04-25 13:41 66.36138 127.98103 35012 ft 486 kts 107°
2026-04-25 13:41 66.34377 128.14308 35009 ft 486 kts 107°
2026-04-25 13:42 66.32599 128.30481 35006 ft 486 kts 107°
2026-04-25 13:42 66.30808 128.46603 35025 ft 486 kts 107°
2026-04-25 13:43 66.28992 128.62770 35032 ft 487 kts 107°
2026-04-25 13:43 66.27174 128.78790 35020 ft 486 kts 108°
2026-04-25 13:44 66.25325 128.94914 35034 ft 486 kts 108°
2026-04-25 13:44 66.23099 129.10638 35033 ft 487 kts 112°
2026-04-25 13:45 66.20742 129.26211 35034 ft 487 kts 112°
2026-04-25 13:45 66.18351 129.41835 35028 ft 486 kts 112°
2026-04-25 13:46 66.15959 129.57373 35020 ft 486 kts 112°
2026-04-25 13:46 66.13587 129.72705 35021 ft 486 kts 112°
2026-04-25 13:47 66.11161 129.88243 35035 ft 486 kts 112°
2026-04-25 13:47 66.08725 130.03709 35069 ft 486 kts 112°
2026-04-25 13:48 66.06275 130.19135 35050 ft 486 kts 112°
2026-04-25 13:48 66.03799 130.34596 35044 ft 487 kts 112°
2026-04-25 13:49 66.01318 130.49962 35058 ft 486 kts 112°
2026-04-25 13:49 65.98872 130.64987 35071 ft 487 kts 112°
2026-04-25 13:50 65.96330 130.80475 35086 ft 488 kts 113°
2026-04-25 13:50 65.93776 130.95915 35105 ft 487 kts 113°
2026-04-25 13:51 65.91232 131.11173 35114 ft 486 kts 113°
2026-04-25 13:51 65.88663 131.26454 35123 ft 487 kts 112°
2026-04-25 13:52 65.86081 131.41692 35113 ft 488 kts 112°
2026-04-25 13:52 65.83475 131.56955 35099 ft 487 kts 112°
2026-04-25 13:53 65.80864 131.72128 35115 ft 486 kts 113°
2026-04-25 13:53 65.78230 131.87311 35115 ft 487 kts 113°
2026-04-25 13:54 65.75577 132.02492 35082 ft 487 kts 113°
2026-04-25 13:54 65.72931 132.17532 35087 ft 488 kts 113°
2026-04-25 13:55 65.70258 132.32613 35102 ft 488 kts 113°
2026-04-25 13:55 65.67564 132.47691 35085 ft 488 kts 113°
2026-04-25 13:56 65.64874 132.62640 35085 ft 489 kts 113°
2026-04-25 13:56 65.62135 132.77742 35108 ft 488 kts 114°
2026-04-25 13:57 65.59396 132.92737 35096 ft 488 kts 114°
2026-04-25 13:57 65.56654 133.07629 35069 ft 487 kts 114°
2026-04-25 13:58 65.53907 133.22447 35069 ft 486 kts 114°
2026-04-25 13:58 65.51131 133.37303 35082 ft 487 kts 114°
2026-04-25 13:59 65.48360 133.52026 35097 ft 487 kts 113°
2026-04-25 13:59 65.45554 133.66834 35087 ft 487 kts 114°
2026-04-25 14:00 65.42720 133.81673 35067 ft 488 kts 114°
2026-04-25 14:00 65.39894 133.96364 35061 ft 488 kts 114°
2026-04-25 14:01 65.37047 134.11063 35049 ft 488 kts 114°
2026-04-25 14:01 65.34181 134.25748 35052 ft 488 kts 114°
2026-04-25 14:02 65.31301 134.40402 35061 ft 488 kts 114°
2026-04-25 14:02 65.28406 134.55028 35072 ft 488 kts 114°
2026-04-25 14:03 65.25487 134.69675 35065 ft 489 kts 115°
2026-04-25 14:03 65.22548 134.84221 35053 ft 490 kts 115°
2026-04-25 14:04 65.19585 134.98766 35050 ft 490 kts 115°
2026-04-25 14:04 65.16599 135.13327 35065 ft 490 kts 115°
2026-04-25 14:05 65.13616 135.27777 35069 ft 490 kts 115°
2026-04-25 14:05 65.10604 135.42273 35081 ft 489 kts 115°
2026-04-25 14:06 65.07619 135.56618 35086 ft 489 kts 115°
2026-04-25 14:06 65.04604 135.71007 35080 ft 488 kts 116°
2026-04-25 14:07 65.01585 135.85312 35070 ft 487 kts 116°
2026-04-25 14:07 64.98547 135.99612 35076 ft 488 kts 116°
2026-04-25 14:08 64.95502 136.13850 35070 ft 489 kts 116°
2026-04-25 14:08 64.92429 136.28116 35063 ft 489 kts 115°
2026-04-25 14:09 64.89342 136.42355 35041 ft 489 kts 115°
2026-04-25 14:09 64.86246 136.56545 35018 ft 488 kts 115°
2026-04-25 14:10 64.83136 136.70699 34997 ft 489 kts 116°
2026-04-25 14:10 64.80010 136.84831 34989 ft 489 kts 116°
2026-04-25 14:11 64.76871 136.98932 34991 ft 490 kts 116°
2026-04-25 14:11 64.73730 137.12952 34995 ft 490 kts 115°
2026-04-25 14:12 64.70723 137.27187 34986 ft 489 kts 114°
2026-04-25 14:12 64.67729 137.41406 34975 ft 489 kts 114°
2026-04-25 14:13 64.64716 137.55588 34967 ft 490 kts 114°
2026-04-25 14:13 64.61668 137.69814 34968 ft 491 kts 115°
2026-04-25 14:14 64.58614 137.83969 34965 ft 491 kts 115°
2026-04-25 14:14 64.55529 137.98163 34964 ft 492 kts 115°
2026-04-25 14:15 64.52429 138.12329 34962 ft 492 kts 115°
2026-04-25 14:15 64.49345 138.26327 34962 ft 492 kts 115°
2026-04-25 14:16 64.46230 138.40367 34968 ft 491 kts 115°
2026-04-25 14:16 64.43103 138.54378 34974 ft 491 kts 115°
2026-04-25 14:17 64.39970 138.68321 34966 ft 491 kts 115°
2026-04-25 14:17 64.36792 138.82370 34969 ft 492 kts 115°
2026-04-25 14:18 64.33628 138.96266 34970 ft 492 kts 115°
2026-04-25 14:18 64.30450 139.10139 34969 ft 492 kts 115°
2026-04-25 14:19 64.27235 139.24078 34964 ft 492 kts 115°
2026-04-25 14:19 64.24011 139.37967 34959 ft 492 kts 115°
2026-04-25 14:20 64.20789 139.51761 34968 ft 493 kts 115°
2026-04-25 14:20 64.17579 139.65416 34973 ft 493 kts 116°
2026-04-25 14:21 64.14295 139.79295 34978 ft 493 kts 116°
2026-04-25 14:21 64.11037 139.92978 34978 ft 492 kts 116°
2026-04-25 14:22 64.07754 140.06685 34989 ft 492 kts 116°
2026-04-25 14:22 64.04466 140.20322 34968 ft 493 kts 116°
2026-04-25 14:23 64.01141 140.34032 34958 ft 494 kts 116°
2026-04-25 14:23 63.97819 140.47638 34972 ft 494 kts 116°
2026-04-25 14:24 63.94498 140.61157 34982 ft 494 kts 116°
2026-04-25 14:24 63.91136 140.74757 34978 ft 494 kts 117°
2026-04-25 14:25 63.87746 140.88376 34972 ft 493 kts 117°
2026-04-25 14:25 63.84358 141.01900 34991 ft 493 kts 116°
2026-04-25 14:26 63.80961 141.15378 34987 ft 492 kts 116°
2026-04-25 14:26 63.77546 141.28845 34971 ft 493 kts 116°
2026-04-25 14:27 63.74134 141.42221 34982 ft 495 kts 116°
2026-04-25 14:27 63.70710 141.55559 34996 ft 494 kts 116°
2026-04-25 14:28 63.67261 141.68916 35020 ft 494 kts 117°
2026-04-25 14:28 63.63783 141.82304 35050 ft 493 kts 117°
2026-04-25 14:29 63.60313 141.95584 35041 ft 493 kts 117°
2026-04-25 14:29 63.56826 142.08847 35028 ft 493 kts 117°
2026-04-25 14:30 63.53329 142.22073 35032 ft 494 kts 117°
2026-04-25 14:30 63.48061 142.41844 35060 ft 494 kts 117°
2026-04-25 14:31 63.44542 142.54954 35061 ft 494 kts 117°
2026-04-25 14:31 63.41005 142.68056 35058 ft 493 kts 117°
2026-04-25 14:32 63.37447 142.81157 35062 ft 494 kts 117°
2026-04-25 14:32 63.33894 142.94163 35050 ft 494 kts 117°
2026-04-25 14:33 63.30305 143.07228 35029 ft 493 kts 117°
2026-04-25 14:33 63.26635 143.20102 35047 ft 496 kts 123°
2026-04-25 14:34 63.22259 143.32016 35073 ft 498 kts 126°
2026-04-25 14:34 63.17853 143.43700 35066 ft 498 kts 126°
2026-04-25 14:35 63.13415 143.55394 35056 ft 498 kts 126°
2026-04-25 14:35 63.08955 143.67081 35019 ft 499 kts 127°
2026-04-25 14:36 63.04448 143.78824 34982 ft 499 kts 127°
2026-04-25 14:36 62.99961 143.90454 34982 ft 498 kts 127°
2026-04-25 14:37 62.95477 144.02017 35004 ft 498 kts 127°
2026-04-25 14:37 62.90994 144.13515 35018 ft 498 kts 127°
2026-04-25 14:38 62.86496 144.24991 34994 ft 498 kts 127°
2026-04-25 14:38 62.81980 144.36456 34989 ft 499 kts 127°
2026-04-25 14:39 62.77448 144.47903 34997 ft 500 kts 127°
2026-04-25 14:39 62.72900 144.59329 35008 ft 499 kts 127°
2026-04-25 14:40 62.68336 144.70741 34990 ft 501 kts 128°
2026-04-25 14:40 62.63787 144.82053 34984 ft 499 kts 127°
2026-04-25 14:41 62.59228 144.93333 34977 ft 500 kts 127°
2026-04-25 14:41 62.54640 145.04629 34973 ft 499 kts 127°
2026-04-25 14:42 62.51564 145.12172 34971 ft 501 kts 127°
2026-04-25 14:42 62.45415 145.27138 34967 ft 501 kts 128°
2026-04-25 14:43 62.40807 145.38269 34943 ft 502 kts 127°
2026-04-25 14:43 62.36148 145.49472 34957 ft 503 kts 127°
2026-04-25 14:44 62.31504 145.60579 34967 ft 502 kts 127°
2026-04-25 14:44 62.26844 145.71674 34992 ft 503 kts 128°
2026-04-25 14:45 62.22109 145.82887 34990 ft 502 kts 128°
2026-04-25 14:45 62.17410 145.93964 34991 ft 503 kts 128°
2026-04-25 14:46 62.12708 146.05009 34971 ft 504 kts 128°
2026-04-25 14:46 62.07985 146.16077 34944 ft 504 kts 128°
2026-04-25 14:47 62.04069 146.25211 34949 ft 504 kts 128°
2026-04-25 14:47 61.98577 146.37956 34967 ft 503 kts 128°
2026-04-25 14:48 61.93847 146.48875 35007 ft 503 kts 128°
2026-04-25 14:48 61.89127 146.59718 35015 ft 503 kts 128°
2026-04-25 14:49 61.84341 146.70659 34988 ft 503 kts 129°
2026-04-25 14:49 61.79570 146.81511 35022 ft 504 kts 129°
2026-04-25 14:50 61.74772 146.92371 35004 ft 504 kts 129°
2026-04-25 14:50 61.69992 147.03137 35010 ft 503 kts 129°
2026-04-25 14:51 61.65189 147.13904 35011 ft 502 kts 129°
2026-04-25 14:51 61.60396 147.24593 35005 ft 501 kts 129°
2026-04-25 14:52 61.55632 147.35170 35001 ft 501 kts 129°
2026-04-25 14:52 61.51664 147.43939 35016 ft 500 kts 129°
2026-04-25 14:53 61.46064 147.56258 35025 ft 501 kts 129°
2026-04-25 14:53 61.41251 147.66789 35003 ft 501 kts 130°
2026-04-25 14:54 61.36411 147.77333 34997 ft 501 kts 130°
2026-04-25 14:54 61.31547 147.87872 34989 ft 501 kts 130°
2026-04-25 14:55 61.26870 147.97932 34964 ft 501 kts 130°
2026-04-25 14:55 61.22024 148.08301 34945 ft 500 kts 130°
2026-04-25 14:56 61.17274 148.18419 34963 ft 500 kts 130°
2026-04-25 14:56 61.12333 148.28894 34974 ft 502 kts 130°
2026-04-25 14:57 61.07448 148.39201 34960 ft 501 kts 130°
2026-04-25 14:57 61.02599 148.49385 34961 ft 500 kts 130°
2026-04-25 14:58 60.97700 148.59628 34988 ft 499 kts 130°
2026-04-25 14:58 60.92839 148.69743 34994 ft 499 kts 131°
2026-04-25 14:59 60.87924 148.79927 34977 ft 501 kts 131°
2026-04-25 14:59 60.83025 148.90027 35007 ft 502 kts 131°
2026-04-25 15:00 60.78119 149.00095 35027 ft 500 kts 131°
2026-04-25 15:00 60.73196 149.10169 34993 ft 501 kts 131°
2026-04-25 15:01 60.68279 149.20189 34981 ft 500 kts 131°
2026-04-25 15:01 60.63369 149.30151 34961 ft 499 kts 131°
2026-04-25 15:02 60.58465 149.40056 34981 ft 499 kts 131°
2026-04-25 15:02 60.53518 149.50001 34995 ft 499 kts 131°
2026-04-25 15:03 60.48602 149.59839 35020 ft 499 kts 131°
2026-04-25 15:03 60.43636 149.69733 34984 ft 500 kts 133°
2026-04-25 15:04 60.38690 149.79542 34955 ft 500 kts 133°
2026-04-25 15:04 60.33704 149.89388 34940 ft 499 kts 133°
2026-04-25 15:05 60.28744 149.99146 34990 ft 499 kts 133°
2026-04-25 15:06 60.21305 150.13709 35028 ft 500 kts 133°
2026-04-25 15:06 60.16339 150.23383 35046 ft 499 kts 133°
2026-04-25 15:07 60.11377 150.33009 35037 ft 499 kts 133°
2026-04-25 15:07 60.06366 150.42683 35036 ft 499 kts 133°
2026-04-25 15:08 60.01400 150.52226 35030 ft 499 kts 133°
2026-04-25 15:08 59.96397 150.61800 35024 ft 499 kts 133°
2026-04-25 15:09 59.91378 150.71265 35008 ft 501 kts 137°
2026-04-25 15:09 59.82902 150.83618 34978 ft 502 kts 142°
2026-04-25 15:10 59.77272 150.91582 34977 ft 501 kts 142°
2026-04-25 15:11 59.68769 151.03555 35041 ft 502 kts 142°
2026-04-25 15:11 59.63102 151.11494 35049 ft 501 kts 142°
2026-04-25 15:12 59.54537 151.23177 35066 ft 501 kts 142°
2026-04-25 15:12 59.50743 151.28294 35073 ft 500 kts 142°
2026-04-25 15:13 59.40247 151.42394 35083 ft 501 kts 142°
2026-04-25 15:14 59.34502 151.50069 35074 ft 501 kts 142°
2026-04-25 15:14 59.28751 151.57732 35063 ft 501 kts 142°
2026-04-25 15:15 59.22988 151.65405 35067 ft 502 kts 143°
2026-04-25 15:15 59.17307 151.72937 35026 ft 500 kts 143°
2026-04-25 15:16 59.11540 151.80553 34993 ft 500 kts 143°
2026-04-25 15:16 59.02894 151.91983 34977 ft 501 kts 143°
2026-04-25 15:17 58.94284 152.03352 35005 ft 501 kts 143°
2026-04-25 15:18 58.88570 152.10855 35025 ft 501 kts 143°
2026-04-25 15:18 58.79919 152.22156 35040 ft 501 kts 143°
2026-04-25 15:19 58.76073 152.27156 35037 ft 501 kts 143°
2026-04-25 15:19 58.68402 152.37062 35034 ft 502 kts 143°
2026-04-25 15:20 58.62617 152.44481 35031 ft 501 kts 143°
2026-04-25 15:20 58.56862 152.51834 35036 ft 502 kts 143°
2026-04-25 15:21 58.51203 152.59495 35038 ft 501 kts 141°
2026-04-25 15:21 58.45551 152.67203 35036 ft 502 kts 142°
2026-04-25 15:22 58.39890 152.74872 35033 ft 501 kts 142°
2026-04-25 15:22 58.34226 152.82507 35034 ft 500 kts 142°
2026-04-25 15:23 58.28535 152.90141 35030 ft 501 kts 142°
2026-04-25 15:23 58.22863 152.97728 35036 ft 502 kts 142°
2026-04-25 15:24 58.17190 153.05280 35028 ft 501 kts 143°
2026-04-25 15:24 58.13321 153.10138 35026 ft 502 kts 144°
2026-04-25 15:25 58.05584 153.19759 35027 ft 501 kts 144°
2026-04-25 15:25 57.99800 153.26935 35034 ft 501 kts 144°
2026-04-25 15:26 57.93987 153.34125 35028 ft 502 kts 144°
2026-04-25 15:26 57.88151 153.41319 35023 ft 502 kts 144°
2026-04-25 15:27 57.82320 153.48480 35018 ft 502 kts 144°
2026-04-25 15:28 57.73581 153.59195 35018 ft 502 kts 144°
2026-04-25 15:28 57.67755 153.66322 35019 ft 501 kts 145°
2026-04-25 15:29 57.61951 153.73395 35014 ft 501 kts 145°
2026-04-25 15:29 57.56134 153.80453 35016 ft 502 kts 145°
2026-04-25 15:30 57.50291 153.87515 35011 ft 502 kts 145°
2026-04-25 15:30 57.44438 153.94563 35011 ft 502 kts 145°
2026-04-25 15:31 57.38578 154.01593 35010 ft 502 kts 145°
2026-04-25 15:31 57.32753 154.08553 35011 ft 501 kts 145°
2026-04-25 15:32 57.26908 154.15509 35012 ft 502 kts 145°
2026-04-25 15:32 57.21047 154.22458 35010 ft 502 kts 145°
2026-04-25 15:33 57.12214 154.32761 35001 ft 503 kts 146°
2026-04-25 15:33 57.06307 154.39586 35003 ft 502 kts 146°
2026-04-25 15:34 57.00384 154.46408 34990 ft 503 kts 146°
2026-04-25 15:34 56.96446 154.50931 34989 ft 503 kts 146°
2026-04-25 15:35 56.85600 154.63329 34979 ft 503 kts 146°
2026-04-25 15:36 56.76704 154.73434 34973 ft 504 kts 147°
2026-04-25 15:36 56.70805 154.80106 34971 ft 504 kts 147°
2026-04-25 15:37 56.64860 154.86801 34973 ft 504 kts 147°
2026-04-25 15:37 56.58901 154.93489 34972 ft 503 kts 147°
2026-04-25 15:38 56.52939 155.00156 34976 ft 505 kts 147°
2026-04-25 15:38 56.47002 155.06769 34970 ft 505 kts 147°
2026-04-25 15:39 56.41018 155.13409 34974 ft 505 kts 147°
2026-04-25 15:39 56.35046 155.20012 34970 ft 505 kts 147°
2026-04-25 15:40 56.31082 155.24382 34967 ft 504 kts 147°
2026-04-25 15:40 56.23112 155.33134 34971 ft 504 kts 147°
2026-04-25 15:41 56.17149 155.39658 34970 ft 504 kts 146°
2026-04-25 15:41 56.11231 155.46239 34978 ft 504 kts 146°
2026-04-25 15:42 56.05268 155.52861 34975 ft 505 kts 146°
2026-04-25 15:42 55.99328 155.59436 34971 ft 505 kts 146°
2026-04-25 15:43 55.93363 155.66002 34965 ft 505 kts 147°
2026-04-25 15:43 55.87391 155.72553 34961 ft 504 kts 147°
2026-04-25 15:44 55.81403 155.79095 34962 ft 505 kts 147°
2026-04-25 15:44 55.75455 155.85571 34957 ft 505 kts 147°
2026-04-25 15:45 55.69444 155.92091 34953 ft 506 kts 147°
2026-04-25 15:45 55.65429 155.96434 34954 ft 505 kts 147°
2026-04-25 15:46 55.57407 156.05078 34940 ft 505 kts 147°
2026-04-25 15:46 55.51371 156.11556 34933 ft 504 kts 147°
2026-04-25 15:47 55.45381 156.17958 34921 ft 506 kts 147°
2026-04-25 15:47 55.39319 156.24416 34913 ft 506 kts 147°
2026-04-25 15:48 55.33237 156.30839 34907 ft 506 kts 147°
2026-04-25 15:48 55.27213 156.37172 34904 ft 505 kts 147°
2026-04-25 15:49 55.21235 156.43436 34895 ft 504 kts 147°
2026-04-25 15:49 55.15212 156.49725 34878 ft 504 kts 147°
2026-04-25 15:50 55.09196 156.55997 34878 ft 505 kts 147°
2026-04-25 15:50 55.03171 156.62265 34871 ft 505 kts 147°
2026-04-25 15:51 54.99115 156.66472 34863 ft 505 kts 148°
2026-04-25 15:51 54.91073 156.74770 34861 ft 506 kts 148°
2026-04-25 15:52 54.85021 156.80983 34855 ft 505 kts 148°
2026-04-25 15:52 54.78935 156.87216 34852 ft 504 kts 148°
2026-04-25 15:53 54.72866 156.93408 34848 ft 505 kts 148°
2026-04-25 15:53 54.66777 156.99600 34819 ft 505 kts 148°
2026-04-25 15:54 54.60571 157.05254 34774 ft 507 kts 159°
2026-04-25 15:54 54.53653 157.07846 34759 ft 507 kts 177°
2026-04-25 15:55 54.46691 157.06790 34758 ft 506 kts 195°
2026-04-25 15:55 54.40220 157.02255 34746 ft 501 kts 213°
2026-04-25 15:56 54.34837 156.94704 34740 ft 496 kts 231°
2026-04-25 15:56 54.31027 156.84944 34776 ft 490 kts 248°
2026-04-25 15:57 54.29046 156.73978 34824 ft 483 kts 264°
2026-04-25 15:57 54.28943 156.62610 34856 ft 476 kts 280°
2026-04-25 15:58 54.30675 156.51743 34876 ft 470 kts 296°
2026-04-25 15:58 54.34043 156.42232 34897 ft 466 kts 311°
2026-04-25 15:59 54.38724 156.34749 34899 ft 463 kts 326°
2026-04-25 15:59 54.44339 156.29062 34914 ft 463 kts 331°
2026-04-25 16:00 54.48052 156.25427 34904 ft 462 kts 331°
2026-04-25 16:00 54.55502 156.17993 34913 ft 462 kts 330°
2026-04-25 16:01 54.61034 156.12390 34913 ft 462 kts 330°
2026-04-25 16:01 54.66613 156.06920 34911 ft 461 kts 336°
2026-04-25 16:02 54.72729 156.03647 34911 ft 461 kts 351°
2026-04-25 16:02 54.79147 156.03360 34913 ft 462 kts
2026-04-25 16:03 54.85294 156.06317 34908 ft 465 kts 24°
2026-04-25 16:03 54.90664 156.12645 34899 ft 469 kts 42°
2026-04-25 16:04 54.94576 156.21677 34883 ft 475 kts 60°
2026-04-25 16:04 54.96614 156.32636 34874 ft 483 kts 79°
2026-04-25 16:05 54.96444 156.44339 34878 ft 491 kts 98°
2026-04-25 16:06 54.93483 156.61293 34880 ft 497 kts 115°
2026-04-25 16:06 54.91640 156.66310 34876 ft 500 kts 126°
2026-04-25 16:06 54.89382 156.70931 34875 ft 502 kts 132°
2026-04-25 16:07 54.84198 156.79047 34876 ft 503 kts 140°
2026-04-25 16:07 54.78579 156.86186 34871 ft 503 kts 144°
2026-04-25 16:08 54.72706 156.92889 34866 ft 504 kts 146°
2026-04-25 16:08 54.66813 156.99263 34837 ft 505 kts 147°
2026-04-25 16:09 54.60809 157.05542 34795 ft 505 kts 148°
2026-04-25 16:09 54.54750 157.11713 34775 ft 505 kts 148°
2026-04-25 16:10 54.48736 157.17792 34795 ft 505 kts 148°
2026-04-25 16:10 54.42645 157.23917 34789 ft 506 kts 148°
2026-04-25 16:11 54.36591 157.29974 34756 ft 506 kts 148°
2026-04-25 16:11 54.30521 157.36026 34704 ft 505 kts 148°
2026-04-25 16:12 54.24455 157.42050 34661 ft 505 kts 149°
2026-04-25 16:12 54.18370 157.48071 34645 ft 505 kts 148°
2026-04-25 16:13 54.12317 157.54039 34519 ft 498 kts 149°
2026-04-25 16:13 54.09309 157.57002 33820 ft 501 kts 148°
2026-04-25 16:13 54.06303 157.59975 33026 ft 508 kts 148°
2026-04-25 16:13 54.03245 157.62997 32264 ft 517 kts 148°
2026-04-25 16:14 54.00181 157.66020 31545 ft 526 kts 149°
2026-04-25 16:14 53.97005 157.69147 30718 ft 530 kts 149°
2026-04-25 16:14 53.93841 157.72255 29872 ft 529 kts 149°
2026-04-25 16:14 53.90642 157.75391 29172 ft 524 kts 149°
2026-04-25 16:15 53.87532 157.78435 28525 ft 519 kts 148°
2026-04-25 16:15 53.84404 157.81490 27891 ft 514 kts 148°
2026-04-25 16:15 53.81368 157.84451 27243 ft 508 kts 148°
2026-04-25 16:15 53.78333 157.87407 26568 ft 502 kts 148°
2026-04-25 16:16 53.75377 157.90256 25962 ft 495 kts 148°
2026-04-25 16:16 53.72377 157.93131 25345 ft 488 kts 148°
2026-04-25 16:16 53.69630 157.95756 24772 ft 481 kts 148°
2026-04-25 16:16 53.66801 157.98503 24185 ft 473 kts 145°
2026-04-25 16:17 53.64241 158.01645 23619 ft 463 kts 138°
2026-04-25 16:17 53.61763 158.05039 23035 ft 455 kts 137°
2026-04-25 16:17 53.59346 158.08374 22460 ft 448 kts 137°
2026-04-25 16:17 53.56939 158.11690 21879 ft 442 kts 137°
2026-04-25 16:18 53.54603 158.14903 21309 ft 435 kts 137°
2026-04-25 16:18 53.53841 158.15951 21125 ft 433 kts 137°
2026-04-25 16:18 53.49983 158.21243 20184 ft 422 kts 137°
2026-04-25 16:18 53.47749 158.24301 19630 ft 415 kts 137°
2026-04-25 16:19 53.45513 158.27357 19054 ft 409 kts 137°
2026-04-25 16:19 53.43321 158.30350 18471 ft 404 kts 137°
2026-04-25 16:19 53.41184 158.33263 17921 ft 398 kts 138°
2026-04-25 16:20 53.36948 158.39024 16803 ft 387 kts 138°
2026-04-25 16:20 53.34871 158.41843 16264 ft 382 kts 138°
2026-04-25 16:20 53.30831 158.47317 15213 ft 372 kts 138°
2026-04-25 16:21 53.28833 158.50020 14706 ft 367 kts 138°
2026-04-25 16:21 53.26855 158.52690 14167 ft 362 kts 139°
2026-04-25 16:21 53.24908 158.55319 13647 ft 371 kts 139°
2026-04-25 16:21 53.22890 158.58040 13090 ft 371 kts 139°
2026-04-25 16:22 53.20911 158.60702 12531 ft 367 kts 139°
2026-04-25 16:22 53.18938 158.63353 11998 ft 363 kts 139°
2026-04-25 16:22 53.16975 158.65988 11468 ft 360 kts 140°
2026-04-25 16:22 53.15034 158.68538 10923 ft 358 kts 144°
2026-04-25 16:23 53.12845 158.70528 10315 ft 349 kts 156°
2026-04-25 16:23 53.10684 158.72047 10004 ft 328 kts 157°
2026-04-25 16:23 53.08661 158.73441 9725 ft 309 kts 158°
2026-04-25 16:23 53.06710 158.74776 9240 ft 300 kts 158°
2026-04-25 16:24 53.04818 158.76068 8731 ft 293 kts 158°
2026-04-25 16:24 53.02966 158.77331 8351 ft 282 kts 158°
2026-04-25 16:24 53.01186 158.78546 8058 ft 273 kts 158°
2026-04-25 16:24 52.99370 158.79489 7619 ft 273 kts 176°
2026-04-25 16:25 52.97524 158.79063 7231 ft 269 kts 205°
2026-04-25 16:25 52.96993 158.78609 7193 ft 264 kts 214°
2026-04-25 16:25 52.95076 158.74751 6207 ft 269 kts 245°
2026-04-25 16:25 52.94307 158.71930 5574 ft 269 kts 248°
2026-04-25 16:26 52.93601 158.69125 5046 ft 264 kts 248°
2026-04-25 16:26 52.93133 158.66219 4521 ft 260 kts 270°
2026-04-25 16:26 52.93502 158.63397 4115 ft 251 kts 297°
2026-04-25 16:26 52.94541 158.61204 4011 ft 239 kts 321°
2026-04-25 16:27 52.95892 158.59724 3915 ft 227 kts 330°
2026-04-25 16:27 52.97271 158.58568 3596 ft 220 kts 336°
2026-04-25 16:27 52.98655 158.57568 3311 ft 213 kts 337°
2026-04-25 16:27 53.00010 158.56648 3055 ft 206 kts 339°
2026-04-25 16:28 53.01304 158.55791 2807 ft 198 kts 339°
2026-04-25 16:28 53.02551 158.54956 2573 ft 186 kts 339°
2026-04-25 16:28 53.03714 158.54166 2330 ft 174 kts 339°
2026-04-25 16:28 53.04779 158.53438 2167 ft 160 kts 339°
2026-04-25 16:29 53.05757 158.52769 2116 ft 150 kts 338°
2026-04-25 16:29 53.06710 158.52115 1935 ft 148 kts 338°
2026-04-25 16:29 53.07669 158.51454 1750 ft 147 kts 338°
2026-04-25 16:29 53.08600 158.50813 1571 ft 146 kts 338°
2026-04-25 16:30 53.09537 158.50168 1386 ft 145 kts 337°
2026-04-25 16:30 53.10474 158.49522 1200 ft 144 kts 337°
2026-04-25 16:30 53.11389 158.48891 1014 ft 142 kts 337°
2026-04-25 16:30 53.12295 158.48267 831 ft 141 kts 337°
2026-04-25 16:31 53.13196 158.47636 648 ft 140 kts 339°
2026-04-25 16:31 53.14101 158.47040 458 ft 141 kts 336°
2026-04-25 16:31 53.15007 158.46405 266 ft 141 kts 338°
2026-04-25 16:31 53.15899 158.45785 129 ft 131 kts 338°
2026-04-25 16:32 53.16602 158.45308 127 ft 88 kts 338°
2026-04-25 16:32 53.16988 158.45030 126 ft 53 kts 337°
2026-04-25 16:32 53.17313 158.44806 126 ft 48 kts 339°
2026-04-25 16:32 53.17535 158.44652 125 ft 19 kts 332°
2026-04-25 16:33 53.17559 158.44450 125 ft 21 kts 249°
2026-04-25 16:33 53.17542 158.44373 125 ft 0 kts 249°
2026-04-25 16:33 53.17537 158.44353 125 ft 6 kts 250°
2026-04-25 16:33 53.17504 158.44211 125 ft 18 kts 248°
2026-04-25 16:34 53.17435 158.43962 124 ft 21 kts 241°
2026-04-25 16:34 53.17343 158.43697 124 ft 31 kts 240°
2026-04-25 16:34 53.17237 158.43396 124 ft 26 kts 240°
2026-04-25 16:34 53.17145 158.43132 124 ft 24 kts 240°
2026-04-25 16:35 53.17058 158.42886 124 ft 22 kts 240°
2026-04-25 16:35 53.16992 158.42772 124 ft 9 kts 206°
2026-04-25 16:35 53.16954 158.42711 124 ft 2 kts 239°
2026-04-25 16:35 53.16947 158.42691 124 ft 0 kts 240°